Location: Saluda
(35.2377°N, 82.3468°W)
Time: 05:22:22
(UTC+00:00)

Vanguard 2 - Pass Details

Date: 11 October 2022
Orbit: 553 x 2933 km, 32.9° (Epoch: 26 November)

Event Time Altitude Azimuth Distance (km) Brightness Sun altitude
Rises 16:58:54 0° 257° (WSW) 3,696 11.1 47.4°
Reaches altitude 10° 17:01:04 10° 256° (WSW) 2,970 10.7 47.4°
Maximum altitude 17:08:34 76° 172° (S) 1,604 10.5 47.5°
Drops below altitude 10° 17:21:31 10° 89° (E) 4,905 11.7 47.5°
Sets 17:26:09 0° 88° (E) 6,225 12.1 47.5°
